Location: Barcelona
(41.3830°N, 2.1830°E)
Time: 12:11:19
(UTC+01:00)

ISS - Pass Details

Date: 20 October 2020
Orbit: 417 x 420 km, 51.6° (Epoch: 29 October)

Event Time Altitude Azimuth Distance (km) Brightness Sun altitude
Rises 07:34:18 0° 198° (SSW) 2,343 -0.1 -7.3°
Reaches altitude 10° 07:36:46 10° 180° (S) 1,485 -0.9 -6.8°
Maximum altitude 07:39:13 19° 133° (SE) 1,055 -0.9 -6.3°
Drops below altitude 10° 07:41:41 10° 85° (E) 1,493 0.6 -5.9°
Sets 07:44:10 0° 67° (ENE) 2,361 1.2 -5.4°
